Location: Burleson Alternative School
(32.5290°N, 97.3406°W)
Time: 10:36:21
(UTC+00:00)

Vanguard 2 Rocket - Pass Details

Date: 10 November 2025
Orbit: 553 x 3287 km, 32.9° (Epoch: 07 December)

Event Time Altitude Azimuth Distance (km) Brightness Sun altitude
Rises 00:47:15 0° 232° (SW) 2,727 10.5 -16.1°
Reaches altitude 10° 00:49:21 10° 224° (SW) 1,902 9.4 -16.6°
Maximum altitude 00:53:16 40° 153° (SSE) 1,017 7.0 -17.4°
Enters shadow 00:55:19 28° 105° (ESE) 1,429 7.4 -17.8°
